Gallup, NM

8:19 AM MST on December 15, 2017 (GMT -0700)
Gallup Municipal

Weather History for KGUP - February, 2013

Change the Weather History Date:

Thursday, February 28, 2013

  Actual Average Record
Temperature  
Mean Temperature 32 °F -  
Max Temperature 53 °F 46 °F 66 °F (1986)
Min Temperature 10 °F 17 °F 0 °F (1987)
Degree Days  
Heating Degree Days 34    
Moisture  
Dew Point 2 °F    
Average Humidity 38    
Maximum Humidity 64    
Minimum Humidity 11    
Precipitation  
Precipitation 0.00 in - - ()
Sea Level Pressure  
Sea Level Pressure 30.41 in    
Wind  
Wind Speed 2 mph (NW)    
Max Wind Speed 13 mph    
Max Gust Speed -    
Visibility 10 miles    
Events      
Averages and records for this station are not official NWS values.
T = Trace of Precipitation, MM = Missing Value Source: NWS Daily Summary

Daily Weather History Graph

Daily Weather History Graph

Search for Another Location

Airport or City:

Trip Planner

Search our weather history database for the weather conditions in past years. The results will help you decide how hot, cold, wet, or windy it might be!

Date:

Astronomy

Feb. 28, 2013 Rise Set
Actual Time 6:45 AM MST 6:09 PM MST
Civil Twilight 6:20 AM MST 6:35 PM MST
Nautical Twilight 5:50 AM MST 7:05 PM MST
Astronomical Twilight 5:21 AM MST 7:34 PM MST
Moon 9:30 PM MST (2/28) 8:05 AM MST (2/28)
Length of Visible Light 12h 15m
Length of Day
11h 24m
Waning Gibbous, 90% of the Moon is Illuminated
Feb 28
Waning Gibbous
Mar 4
Last Quarter
Mar 11
New
Mar 19
First Quarter
Mar 27
Full

Hourly Weather History & Observations

Time (MST) Temp. Windchill Dew Point Humidity Pressure Visibility Wind Dir Wind Speed Gust Speed Precip Events Conditions
12:53 AM 15.1 °F - 3.0 °F 59% 30.38 in 10.0 mi Calm Calm - N/A   Clear
1:53 AM 15.1 °F - 3.0 °F 59% 30.35 in 10.0 mi Calm Calm - N/A   Clear
2:53 AM 10.9 °F - -0.0 °F 61% 30.40 in 10.0 mi Calm Calm - N/A   Clear
3:53 AM 12.0 °F 5.9 °F 1.9 °F 64% 30.39 in 10.0 mi NE 3.5 mph - N/A   Clear
4:53 AM 12.0 °F - 1.9 °F 64% 30.40 in 10.0 mi Calm Calm - N/A   Clear
5:53 AM 12.0 °F - 1.9 °F 64% 30.43 in 10.0 mi Calm Calm - N/A   Clear
6:53 AM 10.9 °F - 1.0 °F 64% 30.51 in 10.0 mi Calm Calm - N/A   Clear
7:53 AM 19.9 °F - 7.0 °F 57% 30.48 in 10.0 mi Calm Calm - N/A   Clear
8:53 AM 27.0 °F - 9.0 °F 47% 30.49 in 10.0 mi Calm Calm - N/A   Clear
9:53 AM 37.9 °F - 5.0 °F 25% 30.43 in 10.0 mi Calm Calm - N/A   Clear
10:53 AM 41.0 °F 38.0 °F 3.9 °F 21% 30.40 in 10.0 mi SW 4.6 mph - N/A   Clear
11:53 AM 43.0 °F 41.3 °F 1.0 °F 17% 30.42 in 10.0 mi Variable 3.5 mph - N/A   Clear
12:53 PM 48.0 °F - 1.0 °F 14% 30.37 in 10.0 mi Calm Calm - N/A   Clear
2:53 PM 52.0 °F - -0.9 °F 11% 30.34 in 10.0 mi Variable 3.5 mph - N/A   Clear
3:53 PM 53.1 °F - -0.9 °F 11% 30.32 in 10.0 mi NW 10.4 mph - N/A   Clear
4:53 PM 52.0 °F - -0.9 °F 11% 30.35 in 10.0 mi North 12.7 mph - N/A   Clear
6:53 PM 42.1 °F 35.7 °F -0.9 °F 17% 30.46 in 10.0 mi NW 11.5 mph - N/A   Clear
8:53 PM 33.1 °F 28.7 °F 1.0 °F 26% 30.44 in 10.0 mi SW 4.6 mph - N/A   Clear
9:53 PM 30.0 °F 25.2 °F 1.0 °F 29% 30.42 in 10.0 mi WSW 4.6 mph - N/A   Clear
11:53 PM 21.9 °F 17.2 °F 1.0 °F 40% 30.43 in 10.0 mi East 3.5 mph - N/A   Clear